EW5186 Weather Reports


time (UTC)temp
C
wind
direction
speed
KPH
gust
KPH
rain 1hr
cm
rain 24hr
cm
rain mn
cm
humidity
%
barometer
mb
20260906050051 17 355 0.0 0.0 0.00 0.13 0.00 94 1014.4
20260906044530 17 355 0.0 0.0 0.00 0.13 0.00 94 1014.5
20260906043028 17 355 0.0 0.0 0.03 0.13 0.00 94 1014.4
20260906041508 17 94 0.0 1.6 0.05 0.13 0.00 94 1014.3
20260906040005 17 78 0.0 3.2 0.05 0.13 0.13 94 1014.2
20260906034554 18 194 0.0 0.0 0.05 0.13 0.13 95 1013.9
20260906033054 18 194 0.0 0.0 0.03 0.10 0.10 95 1013.8
20260906031609 17 194 0.0 0.0 0.00 0.08 0.08 95 1013.7
20260906030051 17 194 0.0 0.0 0.00 0.08 0.08 94 1013.7
20260906024600 18 194 0.0 0.0 0.00 0.08 0.08 94 1013.9
20260906023058 18 194 0.0 0.0 0.05 0.08 0.08 94 1013.8
20260906021548 18 194 0.0 0.0 0.05 0.08 0.08 93 1013.8
20260906020048 18 194 0.0 0.0 0.08 0.08 0.08 93 1013.7
20260906014529 18 194 0.0 0.0 0.08 0.08 0.08 92 1013.7
20260906013028 18 194 0.0 0.0 0.03 0.03 0.03 92 1013.6
20260906011509 18 194 0.0 0.0 0.03 0.03 0.03 90 1013.4
20260906010017 18 122 0.0 0.0 0.00 0.00 0.00 90 1013.3
20260906004549 18 121 0.0 1.6 0.00 0.00 0.00 90 1013.2
20260906003048 18 42 0.0 0.0 0.00 0.00 0.00 90 1013.1
20260906001534 18 41 0.0 1.6 0.00 0.00 0.00 88 1012.7
20260906000027 19 96 0.0 1.6 0.00 0.00 0.00 87 1012.7
20260905234507 19 99 0.0 1.6 0.00 0.00 0.00 85 1012.3
20260905233006 20 102 0.0 1.6 0.00 0.00 0.00 84 1012.4
20260905231549 20 21 0.0 0.0 0.00 0.00 0.00 84 1012.2
20260905230048 20 21 0.0 0.0 0.00 0.00 0.00 83 1012.2
20260905224531 21 21 0.0 0.0 0.00 0.00 0.00 81 1012.1
20260905223031 21 171 0.0 0.0 0.00 0.00 0.00 79 1012.2
20260905221510 22 113 0.0 1.6 0.00 0.00 0.00 76 1011.9
20260905220009 22 303 0.0 3.2 0.00 0.00 0.00 73 1011.8
20260905214558 22 347 0.0 1.6 0.00 0.00 0.00 74 1011.7
20260905213100 22 255 0.0 0.0 0.00 0.00 0.00 74 1011.5
20260905211607 22 260 0.0 1.6 0.00 0.00 0.00 75 1011.2
20260905204600 23 120 0.0 6.4 0.00 0.00 0.00 70 1010.9
20260905203059 24 336 0.0 1.6 0.00 0.00 0.00 70 1010.8
20260905201557 25 276 1.6 4.8 0.00 0.00 0.00 67 1010.9
20260905200110 23 285 0.0 1.6 0.00 0.00 0.00 72 1010.8
20260905194535 23 207 0.0 3.2 0.00 0.00 0.00 69 1010.9
20260905193037 24 124 0.0 6.4 0.00 0.00 0.00 67 1010.9
20260905191516 24 264 0.0 8.0 0.00 0.00 0.00 71 1011.0
20260905190016 25 156 0.0 8.0 0.00 0.00 0.00 66 1010.9
20260905184504 25 178 3.2 9.7 0.00 0.00 0.00 66 1010.9
20260905183004 24 211 0.0 6.4 0.00 0.00 0.00 65 1010.9
20260905181502 24 264 0.0 4.8 0.00 0.00 0.00 63 1010.9
20260905180002 25 288 1.6 9.7 0.00 0.00 0.00 62 1011.1
20260905174603 26 84 1.6 11.3 0.00 0.00 0.00 62 1011.2
20260905173104 25 71 0.0 6.4 0.00 0.00 0.00 63 1011.0
20260905171558 25 293 1.6 9.7 0.00 0.00 0.00 64 1011.3
20260905170059 25 340 0.0 11.3 0.00 0.00 0.00 69 1011.2
20260905164539 25 140 3.2 9.7 0.00 0.00 0.00 66 1011.2
20260905163039 24 145 1.6 9.7 0.00 0.00 0.00 68 1011.3
20260905161519 25 89 3.2 9.7 0.00 0.00 0.00 65 1011.3
20260905160019 25 195 0.0 11.3 0.00 0.00 0.00 66 1011.2
20260905154618 25 65 1.6 11.3 0.00 0.00 0.00 66 1011.4
20260905153056 24 209 1.6 11.3 0.00 0.00 0.00 68 1011.4
20260905151557 24 72 1.6 12.9 0.00 0.00 0.00 68 1011.3
20260905150037 23 231 3.2 11.3 0.00 0.00 0.00 66 1011.4
20260905144537 23 243 1.6 9.7 0.00 0.00 0.00 70 1011.3
20260905143124 23 129 0.0 6.4 0.00 0.00 0.00 71 1011.2
20260905141527 23 224 0.0 9.7 0.00 0.00 0.00 73 1011.2
20260905140018 22 236 1.6 9.7 0.00 0.00 0.00 74 1011.3
20260905134515 22 245 1.6 8.0 0.00 0.00 0.00 76 1011.4
20260905133011 21 62 0.0 6.4 0.00 0.00 0.00 80 1011.4
20260905131515 20 49 0.0 4.8 0.00 0.00 0.00 81 1011.5
20260905130010 21 140 0.0 8.0 0.00 0.00 0.00 81 1011.6
20260905124511 20 327 0.0 4.8 0.00 0.00 0.00 82 1011.7
20260905123048 20 307 0.0 3.2 0.00 0.00 0.00 82 1011.9
20260905121544 19 281 0.0 3.2 0.00 0.00 0.00 86 1011.8
20260905120025 18 167 0.0 3.2 0.00 0.00 0.00 92 1011.8
20260905114520 16 319 0.0 1.6 0.00 0.00 0.00 97 1011.5
20260905113059 15 294 0.0 1.6 0.00 0.00 0.00 97 1011.4
20260905111558 14 307 0.0 0.0 0.00 0.00 0.00 97 1011.2
20260905110050 14 307 0.0 0.0 0.00 0.00 0.00 96 1011.2
20260905104540 13 307 0.0 0.0 0.00 0.00 0.00 96 1011.1
20260905103023 14 307 0.0 0.0 0.00 0.00 0.00 96 1011.0
20260905101526 13 307 0.0 0.0 0.00 0.00 0.00 96 1010.8
20260905100004 14 307 0.0 0.0 0.00 0.03 0.00 96 1010.8
20260905094605 13 307 0.0 0.0 0.00 0.03 0.00 96 1010.7
20260905093052 14 307 0.0 0.0 0.00 0.03 0.00 96 1010.6
20260905091602 14 307 0.0 0.0 0.00 0.03 0.00 96 1010.5
20260905090051 14 307 0.0 0.0 0.00 0.76 0.00 96 1010.5
20260905084549 14 307 0.0 0.0 0.00 0.76 0.00 96 1010.6
20260905083049 14 307 0.0 0.0 0.00 0.76 0.00 96 1010.7
20260905081548 14 307 0.0 0.0 0.00 0.76 0.00 96 1010.6
20260905080047 14 307 0.0 0.0 0.00 0.76 0.00 96 1010.5
20260905074547 14 308 0.0 4.8 0.00 0.76 0.00 96 1010.5
20260905073045 14 292 0.0 0.0 0.00 0.76 0.00 95 1010.5
20260905071543 14 292 0.0 0.0 0.00 0.76 0.00 95 1010.5
20260905070051 15 292 0.0 0.0 0.00 0.76 0.00 95 1010.6
20260905064546 15 292 0.0 0.0 0.00 0.76 0.00 94 1010.7
20260905063050 15 292 0.0 0.0 0.00 0.76 0.00 95 1010.9
20260905061542 15 292 0.0 0.0 0.00 0.76 0.00 95 1011.1
20260905060013 15 288 0.0 0.0 0.00 0.76 0.00 94 1011.3
20260905054511 15 288 0.0 0.0 0.00 0.76 0.00 95 1011.4
20260905053052 15 289 0.0 0.0 0.00 0.76 0.00 94 1011.3
20260905051550 15 289 0.0 0.0 0.00 0.76 0.00 94 1011.7